Flag for Germany Weather past 2 weeks in Bergkamen, North Rhine-Westphalia, Germany

Now
41 °F

Light rain. Broken clouds.


Feels Like: 33 °F
Forecast: 36 / 46 °F
Wind: 14 mph from West

Location: Dortmund / Wickede

Current Time: Mar 4, 2015 at 2:08:40 PM

Latest Report: Mar 4, 2015 at 1:20 PM


Visibility: N/A

Pressure: 30.21 "Hg

Humidity: 66%

Dew point: 30 °F

Location of BergkamenLocation

Historic Weather in Bergkamen — Graph

°F

Bergkamen temperature yesterday

Maximum temperature yesterday: 45 °F (at 12:20 PM)
Minimum temperature yesterday: 36 °F (at 5:20 AM)
Average temperature yesterday: 40 °F

Past Weeks' High & Low Weather Summary

 TemperatureHumidityPressure
High52 °F (Mar 1, 12:50 PM)100% (Feb 18, 10:20 AM)30.74 "Hg (Feb 18, 10:20 AM)
Low30 °F (Feb 28, 5:20 AM)42% (Feb 28, 1:50 PM)29.33 "Hg (Feb 21, 5:20 AM)
Average39 °F75%29.92 "Hg
* Reported Feb 17 12:20 PM — Mar 4 12:50 PM, Bergkamen, Weather by CustomWeather, © 2015

Note: Actual official high and low records may vary slightly from our data, if they occured in-between our weather recording intervals... More about our weather records

Advertising

Bergkamen weather history for previous 24 hours

 ConditionsComfort  
Time TempWeatherWind HumidityBarometerVisibility
12:50 PM
Wed, Mar 4
41 °FPartly sunny.12 mph70%30.21 "HgN/A
12:20 PM41 °FPartly sunny.14 mph76%30.21 "HgN/A
11:50 AM39 °FPartly sunny.15 mph75%30.21 "HgN/A
11:20 AM39 °FPartly sunny.15 mph75%30.21 "HgN/A
10:50 AM39 °FPartly sunny.15 mph75%30.18 "HgN/A
10:20 AM37 °FPartly sunny.14 mph81%30.18 "HgN/A
9:50 AM37 °FPartly sunny.17 mph81%30.18 "HgN/A
9:20 AM37 °FPartly sunny.13 mph81%30.18 "HgN/A
8:50 AM37 °FScattered clouds.14 mph75%30.15 "HgN/A
8:20 AM36 °FPartly sunny.14 mph81%30.15 "HgN/A
7:50 AM36 °FPartly sunny.15 mph81%30.15 "HgN/A
7:20 AM34 °FScattered clouds.14 mph87%30.15 "HgN/A
6:50 AM34 °FClear.13 mph87%30.12 "Hg10 mi
6:20 AM34 °FClear.13 mph87%30.12 "Hg10 mi
5:50 AM36 °FClear.13 mph81%30.12 "Hg10 mi
5:20 AM36 °FClear.14 mph81%30.12 "Hg10 mi
10:50 PM
Tue, Mar 3
37 °FPassing clouds.8 mph87%30.04 "HgN/A
10:20 PM39 °FSprinkles. Passing clouds.10 mph87%30.04 "HgN/A
9:50 PM39 °FClear.10 mph87%30.04 "Hg10 mi
9:20 PM39 °FClear.10 mph81%30.01 "Hg10 mi
8:50 PM39 °FPassing clouds.12 mph81%30.01 "HgN/A
8:20 PM39 °FPassing clouds.12 mph81%30.01 "HgN/A
7:50 PM39 °FScattered showers. Passing clouds.10 mph81%29.98 "HgN/A
7:20 PM39 °FPassing clouds.10 mph81%29.98 "HgN/A
6:50 PM39 °FPassing clouds.13 mph81%29.98 "HgN/A
6:20 PM39 °FClear.16 mph81%29.95 "Hg10 mi
5:50 PM39 °FLight rain. Partly sunny.20 mph81%29.95 "HgN/A
5:20 PM41 °FLight rain. Partly sunny.21 mph81%29.95 "HgN/A
4:50 PM41 °FLight rain. Partly sunny.17 mph81%29.95 "HgN/A
4:20 PM41 °FLight rain. Partly sunny.18 mph76%29.95 "HgN/A
3:50 PM43 °FPartly sunny.18 mph71%29.95 "HgN/A
3:20 PM41 °FLight rain. Partly sunny.29 mph76%29.95 "HgN/A
2:50 PM43 °FLight rain. Partly sunny.18 mph71%29.92 "HgN/A
2:20 PM41 °FDrizzle. Partly sunny.13 mph76%29.95 "HgN/A
Weather by CustomWeather, © 2015

See weather overviewHow to use our weather pages